Stanley, ND

11:30 AM CDT on April 23, 2018 (GMT -0500)
Stanley

Weather History for K08D - September, 2012

Change the Weather History Date:

Sunday, September 30, 2012

  Actual Average (KMIB) Record (KMIB)
Temperature  
Mean Temperature 58 °F -  
Max Temperature 69 °F 60 °F 82 °F (2005)
Min Temperature 44 °F 34 °F 21 °F (2003)
Degree Days  
Heating Degree Days 8    
Growing Degree Days 8 (Base 50)    
Moisture  
Dew Point 42 °F    
Average Humidity 62    
Maximum Humidity 100    
Minimum Humidity 28    
Precipitation  
Precipitation 0.05 in - - ()
Sea Level Pressure  
Sea Level Pressure 30.03 in    
Wind  
Wind Speed 11 mph (NW)    
Max Wind Speed 28 mph    
Max Gust Speed 32 mph    
Visibility 10 miles    
Events Rain    
Averages and records for this station are not official NWS values.
T = Trace of Precipitation, MM = Missing Value Source: NWS Daily Summary

Daily Weather History Graph

Daily Weather History Graph

Search for Another Location

Airport or City:

Astronomy

Sep. 30, 2012 Rise Set
Actual Time 7:48 AM CDT 7:29 PM CDT
Civil Twilight 7:17 AM CDT 8:00 PM CDT
Nautical Twilight 6:40 AM CDT 8:36 PM CDT
Astronomical Twilight 6:03 AM CDT 9:13 PM CDT
Moon 7:25 PM CDT (9/30) 8:28 AM CDT (9/30)
Length of Visible Light 12h 43m
Length of Day
11h 41m
Full, 100% of the Moon is Illuminated
Sep 30
Full
Oct 8
Last Quarter
Oct 15
New
Oct 21
First Quarter
Oct 29
Full

Hourly Weather History & Observations

Time (CDT) Temp. Windchill Dew Point Humidity Pressure Visibility Wind Dir Wind Speed Gust Speed Precip Events Conditions
12:15 AM 57.2 °F - 37.4 °F 48% 29.93 in 10.0 mi West 8.1 mph - N/A   Unknown
12:55 AM 59.0 °F - 37.4 °F 45% 29.93 in 10.0 mi West 10.4 mph - N/A   Unknown
1:15 AM 59.0 °F - 37.4 °F 45% 29.93 in 10.0 mi West 9.2 mph - N/A   Clear
1:35 AM 59.0 °F - 39.2 °F 48% 29.93 in 10.0 mi West 8.1 mph - N/A   Clear
1:55 AM 57.2 °F - 37.4 °F 48% 29.94 in 10.0 mi WNW 8.1 mph - N/A   Unknown
2:15 AM 55.4 °F - 39.2 °F 54% 29.93 in 10.0 mi West 8.1 mph - N/A   Unknown
2:35 AM 55.4 °F - 39.2 °F 54% 29.94 in 10.0 mi West 10.4 mph - N/A   Unknown
2:55 AM 53.6 °F - 39.2 °F 58% 29.94 in 10.0 mi West 8.1 mph - N/A   Unknown
3:15 AM 53.6 °F - 39.2 °F 58% 29.94 in 10.0 mi West 9.2 mph - N/A   Unknown
3:35 AM 51.8 °F - 39.2 °F 62% 29.94 in 10.0 mi West 11.5 mph - N/A   Clear
3:55 AM 50.0 °F - 39.2 °F 66% 29.94 in 10.0 mi West 9.2 mph - N/A   Clear
4:15 AM 51.8 °F - 39.2 °F 62% 29.94 in 10.0 mi WNW 8.1 mph - N/A   Unknown
4:35 AM 51.8 °F - 39.2 °F 62% 29.94 in 10.0 mi WNW 9.2 mph - N/A   Unknown
5:15 AM 55.4 °F - 41.0 °F 58% 29.94 in 10.0 mi WNW 11.5 mph 17.3 mph N/A   Unknown
5:35 AM 55.4 °F - 41.0 °F 58% 29.95 in 10.0 mi WNW 9.2 mph - N/A   Unknown
5:55 AM 53.6 °F - 41.0 °F 62% 29.95 in 10.0 mi WNW 12.7 mph 18.4 mph N/A   Clear
6:15 AM 53.6 °F - 41.0 °F 62% 29.96 in 10.0 mi WNW 10.4 mph - N/A   Clear
6:35 AM 53.6 °F - 41.0 °F 62% 29.97 in 10.0 mi WNW 8.1 mph - N/A   Clear
6:55 AM 51.8 °F - 41.0 °F 67% 29.97 in 10.0 mi WNW 10.4 mph - N/A   Clear
7:15 AM 50.0 °F - 41.0 °F 71% 29.97 in 10.0 mi West 8.1 mph - N/A   Clear
7:35 AM 48.2 °F - 41.0 °F 76% 29.98 in 10.0 mi WNW 5.8 mph - N/A   Unknown
7:55 AM 48.2 °F - 42.8 °F 82% 29.99 in 10.0 mi WNW 4.6 mph - N/A   Unknown
8:15 AM 50.0 °F - 44.6 °F 82% 29.99 in 10.0 mi NW 9.2 mph - N/A   Clear
8:35 AM 53.6 °F - 46.4 °F 77% 29.99 in 10.0 mi WNW 9.2 mph - N/A   Clear
9:15 AM 55.4 °F - 46.4 °F 72% 30.01 in 10.0 mi NW 11.5 mph 19.6 mph N/A   Clear
9:35 AM 57.2 °F - 46.4 °F 67% 30.01 in 10.0 mi NW 15.0 mph 18.4 mph N/A   Clear
9:55 AM 59.0 °F - 46.4 °F 63% 30.01 in 10.0 mi NW 12.7 mph 19.6 mph N/A   Clear
10:15 AM 60.8 °F - 46.4 °F 59% 30.01 in 10.0 mi NW 13.8 mph - N/A   Clear
10:35 AM 62.6 °F - 46.4 °F 55% 30.01 in 10.0 mi NNW 15.0 mph 19.6 mph N/A   Clear
10:55 AM 64.4 °F - 46.4 °F 52% 30.02 in 10.0 mi NNW 11.5 mph 19.6 mph N/A   Clear
11:15 AM 66.2 °F - 44.6 °F 46% 30.02 in 10.0 mi NNW 12.7 mph 18.4 mph N/A   Clear
11:35 AM 64.4 °F - 46.4 °F 52% 30.02 in 10.0 mi NNW 13.8 mph 21.9 mph N/A   Clear
11:55 AM 66.2 °F - 46.4 °F 49% 30.02 in 10.0 mi NNW 18.4 mph 21.9 mph N/A   Clear
12:15 PM 66.2 °F - 44.6 °F 46% 30.03 in 10.0 mi NNW 16.1 mph 23.0 mph N/A   Clear
12:35 PM 66.2 °F - 42.8 °F 43% 30.02 in 10.0 mi NNW 15.0 mph 24.2 mph N/A   Clear
12:55 PM 68.0 °F - 41.0 °F 37% 30.02 in 10.0 mi NNW 17.3 mph 21.9 mph N/A   Clear
1:15 PM 66.2 °F - 37.4 °F 35% 30.03 in 10.0 mi NNW 16.1 mph 20.7 mph N/A   Clear
1:35 PM 69.8 °F - 35.6 °F 28% 30.02 in 10.0 mi NNW 16.1 mph 25.3 mph N/A   Clear
1:55 PM 69.8 °F - 37.4 °F 31% 30.02 in 10.0 mi NNW 18.4 mph 23.0 mph N/A   Clear
2:15 PM 69.8 °F - 37.4 °F 31% 30.02 in 10.0 mi NNW 15.0 mph 21.9 mph N/A   Clear
2:35 PM 68.0 °F - 37.4 °F 33% 30.02 in 10.0 mi NNW 15.0 mph 23.0 mph N/A   Clear
3:15 PM 68.0 °F - 35.6 °F 30% 30.03 in 10.0 mi NNW 19.6 mph 25.3 mph N/A   Clear
3:35 PM 66.2 °F - 37.4 °F 35% 30.04 in 10.0 mi NNW 17.3 mph 25.3 mph N/A   Clear
3:55 PM 66.2 °F - 37.4 °F 35% 30.04 in 10.0 mi North 19.6 mph 23.0 mph N/A   Clear
4:15 PM 66.2 °F - 37.4 °F 35% 30.04 in 10.0 mi NNW 17.3 mph 25.3 mph N/A   Clear
4:35 PM 66.2 °F - 37.4 °F 35% 30.04 in 10.0 mi North 19.6 mph 25.3 mph N/A   Clear
4:55 PM 66.2 °F - 39.2 °F 37% 30.05 in 10.0 mi NNW 19.6 mph 25.3 mph N/A   Clear
5:15 PM 68.0 °F - 39.2 °F 35% 30.06 in 10.0 mi North 18.4 mph 28.8 mph N/A   Clear
5:35 PM 64.4 °F - 41.0 °F 42% 30.07 in 10.0 mi North 24.2 mph 31.1 mph N/A   Clear
5:55 PM 62.6 °F - 41.0 °F 45% 30.09 in 10.0 mi North 27.6 mph 32.2 mph N/A   Clear
6:15 PM 59.0 °F - 42.8 °F 55% 30.10 in 10.0 mi NNW 21.9 mph 29.9 mph N/A   Mostly Cloudy
6:35 PM 57.2 °F - 44.6 °F 63% 30.11 in 10.0 mi NNW 20.7 mph 29.9 mph N/A   Overcast
7:15 PM 51.8 °F - 50.0 °F 94% 30.13 in 10.0 mi NNW 11.5 mph - 0.03 in Rain Light Rain
7:35 PM 51.8 °F - 50.0 °F 94% 30.13 in 10.0 mi North 11.5 mph - 0.05 in Rain Light Rain
7:55 PM 51.8 °F - 50.0 °F 94% 30.13 in 10.0 mi NNW 10.4 mph 16.1 mph 0.05 in   Mostly Cloudy
8:15 PM 50.0 °F - 50.0 °F 100% 30.14 in 10.0 mi NNW 8.1 mph - N/A   Mostly Cloudy
8:35 PM 50.0 °F - 50.0 °F 100% 30.14 in 10.0 mi NW 4.6 mph - N/A   Overcast
8:55 PM 50.0 °F - 50.0 °F 100% 30.15 in 10.0 mi NW 6.9 mph - N/A   Mostly Cloudy
9:15 PM 50.0 °F - 48.2 °F 94% 30.16 in 10.0 mi NNW 10.4 mph - N/A   Mostly Cloudy
9:35 PM 48.2 °F - 48.2 °F 100% 30.16 in 10.0 mi NNW 11.5 mph - N/A   Overcast
10:15 PM 48.2 °F - 48.2 °F 100% 30.18 in 10.0 mi NNW 10.4 mph 17.3 mph N/A   Overcast
10:35 PM 48.2 °F - 48.2 °F 100% 30.18 in 10.0 mi NW 10.4 mph - N/A   Overcast
10:55 PM 48.2 °F - 46.4 °F 93% 30.19 in 10.0 mi NW 11.5 mph - N/A   Overcast
11:15 PM 48.2 °F - 46.4 °F 93% 30.19 in 10.0 mi NW 8.1 mph - N/A   Overcast
11:35 PM 46.4 °F 42.9 °F 46.4 °F 100% 30.19 in 10.0 mi WNW 6.9 mph - N/A   Scattered Clouds
11:55 PM 44.6 °F 40.2 °F 44.6 °F 100% 30.19 in 10.0 mi WNW 8.1 mph - N/A   Clear